Time,TemperatureF,DewpointF,PressureIn,WindDirection,WindDirectionDegrees,WindSpeedMPH,WindSpeedGustMPH,Humidity,HourlyPrecipIn,Conditions,Clouds,dailyrainin,SoftwareType,DateUTC
2013-05-16 00:02:00,64.0,60.0,29.73,South,173,0.0,-999.0,86,-99.99,,,-99.99,,2013-05-16 04:02:00,
2013-05-16 00:12:00,64.0,60.0,29.73,South,173,0.0,-999.0,86,-99.99,,,-99.99,,2013-05-16 04:12:00,
2013-05-16 00:23:00,64.0,60.0,29.73,South,173,0.0,-999.0,86,-99.99,,,-99.99,,2013-05-16 04:23:00,
2013-05-16 00:33:00,64.0,59.0,29.73,South,173,0.0,-999.0,85,-99.99,,,-99.99,,2013-05-16 04:33:00,
2013-05-16 00:42:00,64.0,59.0,29.73,South,173,0.0,-999.0,85,-99.99,,,-99.99,,2013-05-16 04:42:00,
2013-05-16 00:53:00,64.0,59.0,29.73,South,173,2.0,-999.0,85,-99.99,,,-99.99,,2013-05-16 04:53:00,
2013-05-16 01:02:00,64.0,60.0,29.73,South,173,2.0,-999.0,86,-99.99,,,-99.99,,2013-05-16 05:02:00,
2013-05-16 01:12:00,64.0,60.0,29.73,South,173,2.0,-999.0,86,-99.99,,,-99.99,,2013-05-16 05:12:00,
2013-05-16 01:22:00,64.0,60.0,29.73,South,173,4.0,-999.0,86,-99.99,,,-99.99,,2013-05-16 05:22:00,
2013-05-16 01:32:00,64.0,60.0,29.73,South,173,5.0,-999.0,86,-99.99,,,-99.99,,2013-05-16 05:32:00,
2013-05-16 01:42:00,64.0,60.0,29.73,South,173,5.0,-999.0,86,-99.99,,,-99.99,,2013-05-16 05:42:00,
2013-05-16 01:52:00,64.0,60.0,29.73,South,173,4.0,-999.0,86,-99.99,,,-99.99,,2013-05-16 05:52:00,
2013-05-16 02:02:00,64.0,59.0,29.72,South,173,3.0,-999.0,85,-99.99,,,-99.99,,2013-05-16 06:02:00,
2013-05-16 02:12:00,64.0,59.0,29.72,South,173,3.0,-999.0,85,-99.99,,,-99.99,,2013-05-16 06:12:00,
2013-05-16 02:22:00,64.0,59.0,29.73,South,173,2.0,-999.0,85,-99.99,,,-99.99,,2013-05-16 06:22:00,
2013-05-16 02:33:00,64.0,59.0,29.73,South,173,1.0,-999.0,85,-99.99,,,-99.99,,2013-05-16 06:33:00,
2013-05-16 02:43:00,64.0,59.0,29.73,South,173,1.0,-999.0,85,-99.99,,,-99.99,,2013-05-16 06:43:00,
2013-05-16 02:52:00,63.0,59.0,29.73,South,173,1.0,-999.0,87,-99.99,,,-99.99,,2013-05-16 06:52:00,
2013-05-16 03:02:00,64.0,60.0,29.73,South,173,2.0,-999.0,88,-99.99,,,-99.99,,2013-05-16 07:02:00,
2013-05-16 03:12:00,64.0,60.0,29.73,South,173,2.0,-999.0,88,-99.99,,,-99.99,,2013-05-16 07:12:00,
2013-05-16 03:24:00,65.0,60.0,29.73,South,173,1.0,-999.0,85,-99.99,,,-99.99,,2013-05-16 07:24:00,
2013-05-16 03:34:00,65.0,60.0,29.72,South,173,0.0,-999.0,85,-99.99,,,-99.99,,2013-05-16 07:34:00,
2013-05-16 03:44:00,65.0,60.0,29.72,South,173,0.0,-999.0,85,-99.99,,,-99.99,,2013-05-16 07:44:00,
2013-05-16 03:54:00,64.0,60.0,29.73,South,173,1.0,-999.0,86,-99.99,,,-99.99,,2013-05-16 07:54:00,
2013-05-16 04:03:00,63.0,59.0,29.73,South,173,0.0,-999.0,86,-99.99,,,-99.99,,2013-05-16 08:03:00,
2013-05-16 04:13:00,63.0,59.0,29.73,South,173,0.0,-999.0,86,-99.99,,,-99.99,,2013-05-16 08:13:00,
2013-05-16 04:24:00,63.0,59.0,29.73,South,173,1.0,-999.0,88,-99.99,,,-99.99,,2013-05-16 08:24:00,
2013-05-16 04:35:00,63.0,60.0,29.74,South,173,1.0,-999.0,89,-99.99,,,-99.99,,2013-05-16 08:35:00,
2013-05-16 04:45:00,63.0,60.0,29.74,South,173,1.0,-999.0,89,-99.99,,,-99.99,,2013-05-16 08:45:00,
2013-05-16 04:54:00,63.0,60.0,29.73,South,173,1.0,-999.0,89,-99.99,,,-99.99,,2013-05-16 08:54:00,
2013-05-16 05:04:00,63.0,60.0,29.73,South,173,0.0,-999.0,89,-99.99,,,-99.99,,2013-05-16 09:04:00,
2013-05-16 05:14:00,63.0,60.0,29.73,South,173,0.0,-999.0,89,-99.99,,,-99.99,,2013-05-16 09:14:00,
2013-05-16 05:24:00,63.0,60.0,29.73,South,173,0.0,-999.0,89,-99.99,,,-99.99,,2013-05-16 09:24:00,
2013-05-16 05:35:00,63.0,60.0,29.73,South,173,0.0,-999.0,89,-99.99,,,-99.99,,2013-05-16 09:35:00,
2013-05-16 05:45:00,63.0,60.0,29.73,South,173,0.0,-999.0,89,-99.99,,,-99.99,,2013-05-16 09:45:00,
2013-05-16 05:55:00,63.0,60.0,29.73,South,173,0.0,-999.0,89,-99.99,,,-99.99,,2013-05-16 09:55:00,
2013-05-16 06:05:00,64.0,60.0,29.75,South,173,1.0,-999.0,87,-99.99,,,-99.99,,2013-05-16 10:05:00,
2013-05-16 06:15:00,64.0,60.0,29.75,South,173,1.0,-999.0,87,-99.99,,,-99.99,,2013-05-16 10:15:00,
2013-05-16 06:24:00,64.0,60.0,29.76,South,173,1.0,-999.0,87,-99.99,,,-99.99,,2013-05-16 10:24:00,
2013-05-16 06:36:00,64.0,60.0,29.76,South,173,0.0,-999.0,87,-99.99,,,-99.99,,2013-05-16 10:36:00,
2013-05-16 06:45:00,64.0,60.0,29.76,South,173,0.0,-999.0,87,-99.99,,,-99.99,,2013-05-16 10:45:00,
2013-05-16 06:56:00,65.0,61.0,29.76,South,173,5.0,-999.0,87,-99.99,,,-99.99,,2013-05-16 10:56:00,
2013-05-16 07:05:00,65.0,61.0,29.77,South,173,4.0,-999.0,86,-99.99,,,-99.99,,2013-05-16 11:05:00,
2013-05-16 07:15:00,65.0,61.0,29.77,South,173,4.0,-999.0,86,-99.99,,,-99.99,,2013-05-16 11:15:00,
2013-05-16 07:25:00,66.0,61.0,29.78,South,173,4.0,-999.0,85,-99.99,,,-99.99,,2013-05-16 11:25:00,
2013-05-16 07:35:00,66.0,61.0,29.78,South,173,3.0,-999.0,84,-99.99,,,-99.99,,2013-05-16 11:35:00,
2013-05-16 07:46:00,66.0,61.0,29.78,South,173,3.0,-999.0,84,-99.99,,,-99.99,,2013-05-16 11:46:00,
2013-05-16 07:56:00,67.0,62.0,29.79,South,173,1.0,-999.0,84,-99.99,,,-99.99,,2013-05-16 11:56:00,
2013-05-16 08:06:00,66.0,61.0,29.80,South,173,3.0,-999.0,85,-99.99,,,-99.99,,2013-05-16 12:06:00,
2013-05-16 08:13:00,66.0,61.0,29.80,South,173,3.0,-999.0,85,-99.99,,,-99.99,,2013-05-16 12:13:00,
2013-05-16 08:23:00,64.0,61.0,29.82,South,184,5.0,-999.0,89,-99.99,,,-99.99,,2013-05-16 12:23:00,
2013-05-16 08:35:00,64.0,61.0,29.82,WNW,284,5.0,-999.0,89,-99.99,,,-99.99,,2013-05-16 12:35:00,
2013-05-16 08:45:00,64.0,61.0,29.82,WNW,284,5.0,-999.0,89,-99.99,,,-99.99,,2013-05-16 12:45:00,
2013-05-16 08:53:00,64.0,61.0,29.82,WNW,296,4.0,-999.0,89,-99.99,,,-99.99,,2013-05-16 12:53:00,
2013-05-16 09:04:00,63.0,60.0,29.82,WNW,296,0.0,-999.0,91,-99.99,,,-99.99,,2013-05-16 13:04:00,
2013-05-16 09:12:00,63.0,60.0,29.82,WNW,296,0.0,-999.0,91,-99.99,,,-99.99,,2013-05-16 13:12:00,
2013-05-16 09:26:00,63.0,61.0,29.83,WNW,296,0.0,-999.0,92,-99.99,,,-99.99,,2013-05-16 13:26:00,
2013-05-16 09:35:00,64.0,62.0,29.82,WNW,296,1.0,-999.0,92,-99.99,,,-99.99,,2013-05-16 13:35:00,
2013-05-16 09:43:00,64.0,62.0,29.82,WNW,296,1.0,-999.0,92,-99.99,,,-99.99,,2013-05-16 13:43:00,
2013-05-16 09:55:00,64.0,62.0,29.81,WNW,296,1.0,-999.0,92,-99.99,,,-99.99,,2013-05-16 13:55:00,
2013-05-16 10:05:00,65.0,63.0,29.83,WNW,296,2.0,-999.0,92,-99.99,,,-99.99,,2013-05-16 14:05:00,
2013-05-16 10:16:00,65.0,63.0,29.83,WNW,296,2.0,-999.0,92,-99.99,,,-99.99,,2013-05-16 14:16:00,
2013-05-16 10:23:00,65.0,62.0,29.81,WNW,296,0.0,-999.0,91,-99.99,,,-99.99,,2013-05-16 14:23:00,
2013-05-16 10:37:00,67.0,64.0,29.82,WNW,296,0.0,-999.0,89,-99.99,,,-99.99,,2013-05-16 14:37:00,
2013-05-16 10:47:00,67.0,64.0,29.82,WNW,296,0.0,-999.0,89,-99.99,,,-99.99,,2013-05-16 14:47:00,
2013-05-16 10:55:00,67.0,63.0,29.83,WNW,296,0.0,-999.0,86,-99.99,,,-99.99,,2013-05-16 14:55:00,
2013-05-16 11:08:00,68.0,63.0,29.83,WNW,296,1.0,-999.0,85,-99.99,,,-99.99,,2013-05-16 15:08:00,
2013-05-16 11:17:00,68.0,63.0,29.83,WNW,296,1.0,-999.0,85,-99.99,,,-99.99,,2013-05-16 15:17:00,
2013-05-16 11:28:00,68.0,63.0,29.83,WNW,296,0.0,-999.0,85,-99.99,,,-99.99,,2013-05-16 15:28:00,
2013-05-16 11:40:00,69.0,63.0,29.82,WNW,296,2.0,-999.0,82,-99.99,,,-99.99,,2013-05-16 15:40:00,
2013-05-16 11:50:00,69.0,63.0,29.82,WSW,256,2.0,-999.0,80,-99.99,,,-99.99,,2013-05-16 15:50:00,
2013-05-16 12:00:00,69.0,63.0,29.82,WSW,256,2.0,-999.0,80,-99.99,,,-99.99,,2013-05-16 16:00:00,
2013-05-16 12:09:00,70.0,63.0,29.82,WSW,254,2.0,-999.0,79,-99.99,,,-99.99,,2013-05-16 16:09:00,
2013-05-16 12:20:00,70.0,63.0,29.82,WSW,254,2.0,-999.0,79,-99.99,,,-99.99,,2013-05-16 16:20:00,
2013-05-16 12:30:00,71.0,64.0,29.82,WSW,258,3.0,-999.0,78,-99.99,,,-99.99,,2013-05-16 16:30:00,
2013-05-16 12:40:00,72.0,-99.9,29.80,West,269,3.0,-999.0,78,-99.99,,,-99.99,,2013-05-16 16:40:00,
2013-05-16 12:51:00,72.0,65.0,29.80,West,269,3.0,-999.0,78,-99.99,,,-99.99,,2013-05-16 16:51:00,
2013-05-16 13:00:00,71.0,64.0,29.81,WSW,253,5.0,-999.0,78,-99.99,,,-99.99,,2013-05-16 17:00:00,
2013-05-16 13:10:00,72.0,64.0,29.82,West,267,4.0,-999.0,77,-99.99,,,-99.99,,2013-05-16 17:10:00,
2013-05-16 13:20:00,72.0,64.0,29.82,West,267,4.0,-999.0,77,-99.99,,,-99.99,,2013-05-16 17:20:00,
2013-05-16 13:31:00,72.0,64.0,29.81,WSW,244,3.0,-999.0,76,-99.99,,,-99.99,,2013-05-16 17:31:00,
2013-05-16 13:40:00,72.0,64.0,29.81,West,269,5.0,-999.0,75,-99.99,,,-99.99,,2013-05-16 17:40:00,
2013-05-16 13:50:00,-999.0,-99.9,29.80,West,272,7.0,-999.0,76,-99.99,,,-99.99,,2013-05-16 17:50:00,
2013-05-16 14:00:00,72.0,-99.9,29.80,West,272,7.0,-999.0,76,-99.99,,,-99.99,,2013-05-16 18:00:00,
2013-05-16 14:10:00,73.0,65.0,29.80,West,267,8.0,-999.0,76,-99.99,,,-99.99,,2013-05-16 18:10:00,
2013-05-16 14:20:00,73.0,65.0,29.80,West,267,8.0,-999.0,76,-99.99,,,-99.99,,2013-05-16 18:20:00,
2013-05-16 14:30:00,-999.0,-99.9,29.80,WSW,257,5.0,-999.0,74,-99.99,,,-99.99,,2013-05-16 18:30:00,
2013-05-16 14:40:00,-999.0,-99.9,29.80,West,269,5.0,-999.0,73,-99.99,,,-99.99,,2013-05-16 18:40:00,
2013-05-16 14:50:00,-999.0,-99.9,29.80,West,269,5.0,-999.0,73,-99.99,,,-99.99,,2013-05-16 18:50:00,
2013-05-16 15:00:00,-999.0,-99.9,29.79,West,261,4.0,-999.0,71,-99.99,,,-99.99,,2013-05-16 19:00:00,
2013-05-16 15:11:00,74.0,-99.9,29.79,West,267,5.0,-999.0,71,-99.99,,,-99.99,,2013-05-16 19:11:00,
2013-05-16 15:20:00,74.0,64.0,29.79,West,267,5.0,-999.0,71,-99.99,,,-99.99,,2013-05-16 19:20:00,
2013-05-16 15:30:00,75.0,66.0,29.79,West,271,4.0,-999.0,73,-99.99,,,-99.99,,2013-05-16 19:30:00,
2013-05-16 15:40:00,75.0,-99.9,29.78,West,275,4.0,-999.0,72,-99.99,,,-99.99,,2013-05-16 19:40:00,
2013-05-16 15:51:00,-999.0,-99.9,29.78,West,275,4.0,-999.0,72,-99.99,,,-99.99,,2013-05-16 19:51:00,
2013-05-16 16:00:00,77.0,-99.9,29.78,West,265,2.0,-999.0,68,-99.99,,,-99.99,,2013-05-16 20:00:00,
2013-05-16 16:10:00,-999.0,-99.9,29.78,West,259,4.0,-999.0,67,-99.99,,,-99.99,,2013-05-16 20:10:00,
2013-05-16 16:20:00,77.0,-99.9,29.78,West,267,7.0,-999.0,66,-99.99,,,-99.99,,2013-05-16 20:20:00,
2013-05-16 16:30:00,77.0,-99.9,29.78,West,267,7.0,-999.0,66,-99.99,,,-99.99,,2013-05-16 20:30:00,
2013-05-16 16:41:00,-999.0,-99.9,29.77,WSW,252,2.0,-999.0,66,-99.99,,,-99.99,,2013-05-16 20:41:00,
2013-05-16 16:51:00,78.0,65.0,29.77,West,261,6.0,-999.0,64,-99.99,,,-99.99,,2013-05-16 20:51:00,
2013-05-16 17:00:00,78.0,65.0,29.77,West,261,6.0,-999.0,64,-99.99,,,-99.99,,2013-05-16 21:00:00,
2013-05-16 17:10:00,-999.0,-99.9,29.77,West,269,5.0,-999.0,62,-99.99,,,-99.99,,2013-05-16 21:10:00,
2013-05-16 17:20:00,78.0,-99.9,29.77,West,269,5.0,-999.0,62,-99.99,,,-99.99,,2013-05-16 21:20:00,
2013-05-16 17:29:00,78.0,64.0,29.76,West,269,3.0,-999.0,63,-99.99,,,-99.99,,2013-05-16 21:29:00,
2013-05-16 17:38:00,77.0,64.0,29.77,WSW,256,5.0,-999.0,64,-99.99,,,-99.99,,2013-05-16 21:38:00,
2013-05-16 17:50:00,77.0,-99.9,29.77,WSW,256,5.0,-999.0,64,-99.99,,,-99.99,,2013-05-16 21:50:00,
2013-05-16 18:00:00,-999.0,-99.9,29.77,West,261,5.0,-999.0,64,-99.99,,,-99.99,,2013-05-16 22:00:00,
2013-05-16 18:08:00,78.0,64.0,29.77,West,261,6.0,-999.0,62,-99.99,,,-99.99,,2013-05-16 22:08:00,
2013-05-16 18:21:00,78.0,64.0,29.77,West,261,6.0,-999.0,62,-99.99,,,-99.99,,2013-05-16 22:21:00,
2013-05-16 18:31:00,78.0,62.0,29.77,West,264,7.0,-999.0,58,-99.99,,,-99.99,,2013-05-16 22:31:00,
2013-05-16 18:40:00,78.0,62.0,29.77,WSW,257,5.0,-999.0,57,-99.99,,,-99.99,,2013-05-16 22:40:00,
2013-05-16 18:51:00,78.0,62.0,29.77,WSW,257,5.0,-999.0,57,-99.99,,,-99.99,,2013-05-16 22:51:00,
2013-05-16 19:00:00,78.0,62.0,29.78,West,266,4.0,-999.0,58,-99.99,,,-99.99,,2013-05-16 23:00:00,
2013-05-16 19:06:00,77.0,62.0,29.78,West,275,2.0,-999.0,59,-99.99,,,-99.99,,2013-05-16 23:06:00,
2013-05-16 19:16:00,77.0,62.0,29.78,West,275,2.0,-999.0,59,-99.99,,,-99.99,,2013-05-16 23:16:00,
2013-05-16 19:24:00,78.0,62.0,29.78,West,264,3.0,-999.0,57,-99.99,,,-99.99,,2013-05-16 23:24:00,
2013-05-16 19:35:00,78.0,61.0,29.78,West,260,4.0,-999.0,56,-99.99,,,-99.99,,2013-05-16 23:35:00,
2013-05-16 19:45:00,78.0,61.0,29.78,West,260,4.0,-999.0,56,-99.99,,,-99.99,,2013-05-16 23:45:00,
2013-05-16 19:54:00,78.0,61.0,29.78,West,270,3.0,-999.0,55,-99.99,,,-99.99,,2013-05-16 23:54:00,
2013-05-16 20:03:00,77.0,61.0,29.79,West,269,4.0,-999.0,57,-99.99,,,-99.99,,2013-05-17 00:03:00,
2013-05-16 20:13:00,77.0,61.0,29.79,West,269,4.0,-999.0,57,-99.99,,,-99.99,,2013-05-17 00:13:00,
2013-05-16 20:22:00,75.0,59.0,29.80,West,267,4.0,-999.0,58,-99.99,,,-99.99,,2013-05-17 00:22:00,
2013-05-16 20:33:00,75.0,60.0,29.80,West,267,2.0,-999.0,59,-99.99,,,-99.99,,2013-05-17 00:33:00,
2013-05-16 20:43:00,75.0,60.0,29.80,West,267,2.0,-999.0,59,-99.99,,,-99.99,,2013-05-17 00:43:00,
2013-05-16 20:53:00,74.0,61.0,29.81,West,267,1.0,-999.0,64,-99.99,,,-99.99,,2013-05-17 00:53:00,
2013-05-16 21:03:00,73.0,62.0,29.81,West,267,1.0,-999.0,68,-99.99,,,-99.99,,2013-05-17 01:03:00,
2013-05-16 21:12:00,73.0,62.0,29.81,West,267,1.0,-999.0,68,-99.99,,,-99.99,,2013-05-17 01:12:00,
2013-05-16 21:23:00,72.0,61.0,29.82,West,267,0.0,-999.0,69,-99.99,,,-99.99,,2013-05-17 01:23:00,
2013-05-16 21:32:00,70.0,61.0,29.83,West,267,1.0,-999.0,74,-99.99,,,-99.99,,2013-05-17 01:32:00,
2013-05-16 21:43:00,70.0,61.0,29.83,West,267,1.0,-999.0,74,-99.99,,,-99.99,,2013-05-17 01:43:00,
2013-05-16 21:52:00,70.0,61.0,29.83,West,267,1.0,-999.0,74,-99.99,,,-99.99,,2013-05-17 01:52:00,
2013-05-16 22:02:00,70.0,61.0,29.84,West,267,1.0,-999.0,73,-99.99,,,-99.99,,2013-05-17 02:02:00,
2013-05-16 22:11:00,70.0,61.0,29.84,West,267,1.0,-999.0,73,-99.99,,,-99.99,,2013-05-17 02:11:00,
2013-05-16 22:22:00,70.0,61.0,29.84,West,267,1.0,-999.0,73,-99.99,,,-99.99,,2013-05-17 02:22:00,
2013-05-16 22:32:00,69.0,60.0,29.85,West,267,1.0,-999.0,74,-99.99,,,-99.99,,2013-05-17 02:32:00,
2013-05-16 22:42:00,69.0,60.0,29.85,West,267,1.0,-999.0,74,-99.99,,,-99.99,,2013-05-17 02:42:00,
2013-05-16 22:53:00,69.0,61.0,29.85,West,267,1.0,-999.0,76,-99.99,,,-99.99,,2013-05-17 02:53:00,
2013-05-16 23:02:00,68.0,61.0,29.85,West,267,2.0,-999.0,77,-99.99,,,-99.99,,2013-05-17 03:02:00,
2013-05-16 23:11:00,68.0,61.0,29.85,West,267,2.0,-999.0,77,-99.99,,,-99.99,,2013-05-17 03:11:00,
2013-05-16 23:23:00,67.0,60.0,29.85,West,267,3.0,-999.0,78,-99.99,,,-99.99,,2013-05-17 03:23:00,
2013-05-16 23:34:00,67.0,60.0,29.86,West,267,3.0,-999.0,78,-99.99,,,-99.99,,2013-05-17 03:34:00,
2013-05-16 23:43:00,67.0,60.0,29.86,West,267,3.0,-999.0,78,-99.99,,,-99.99,,2013-05-17 03:43:00,
2013-05-16 23:53:00,66.0,59.0,29.86,West,267,3.0,-999.0,79,-99.99,,,-99.99,,2013-05-17 03:53:00,